FENGYUN 1C DEB, 30657

Orbit data source: Space-Track

FENGYUN 1C DEB, 30657 is space debris in SSO originally from a launch on Mon, 10 May 1999 UTC launched from the Taiyaun Space Center, China (TSC). Fengyun 1C debris stems from the Chinese weather satellite Fengyun-1C, which was intentionally destroyed by a Chinese anti-satellite missile in 2007. This event dramatically increased the amount of space debris, with thousands of trackable fragments posing hazards to satellites and human spaceflight. The Fengyun 1C debris cloud has become a focal point in discussions about space sustainability and the need for international regulations to prevent the creation of new debris.

Loading next visibility...
Identifier
30657, 1999-025APP
Orbit
SSO
Country
Flag of CNCN / PRC
Related business
Manufacturer
Unknown
Mission
Spacecraft
Bus & Motor
Unknown
Mass
Unknown
Launch date (UTC)
1999-05-10 (27 years ago)
Launch vehicle
Unknown
Launch site
Taiyaun Space Center, China (TSC)
Object type
Payload
Rocket body
Debris
Shape & HBR
Unknown shape, 0.1 m
Radar Cross Section
Small (<0.1 m²)

Expand to show TLE details & history
Last TLE update: 14 hours ago

TLE from 14 hours ago
0 FENGYUN 1C DEB
1 30657U 99025APP 25352.26845421  .00005570  00000-0  18283-2 0  9996
2 30657  98.8351  90.4594 0015932 327.4002  87.8549 14.38666380973124
Epoch: 2025-12-18T06:26Z
TLE epoch observation values (Epoch: 2025-12-18T06:26:34.443Z)
Latitude
54.56418°
Longitude
-105.85899°
Altitude
771.477 km
Speed
7.474 km/s
True Right ascension
05h 11m 38s
True Declination
54° 24' 07"
Sunlit
Object was in full shadow at epoch
Visualization orbit readout
Latitude
Unknown
Longitude
Unknown
Altitude
Unknown
Speed
Unknown
Apparent Right ascension
Unknown
Apparent Declination
Unknown
Sunlit
N/A
Visualization observer readout
Local Sidereal Time
19:21:35
Azimuth
Unknown
Elevation
Unknown
Doppler factor
Unknown
Orbital elements
Apogee altitude
771.42 km
Perigee altitude
748.675 km
Semi-major axis
7,138.185 km
Eccentricity
0.00159
Inclination
98.8351°
RAAN
90.4594°
Arg. of periapsis
327.4002°
True anomaly
88.03735°
Mean anomaly
87.8549°
Eccentric anomaly
87.94612°
Mean motion
3.59883 °/min
Orbital period
100.03 mins
BSTAR
0.0018283
Loading maneuver chart data...
Computing Atmospheric mass density...

Documentation

Showing up to 5 results
|